Weather in Koropets

Ukraine / Ternopil District     48°56′19″N   25°10′45″E
temp.,
°C
wind,
m/s
gust,
m/s
humid.,
%
clouds,
%
prec.,
mm/h
press.,
hPa
HPBL,
m
24 january, sun
sun2423:00+2ese3392100 0.0 100349
02:00+1se2393100 0.0 100147
05:00+1se2395100 0.0 99958
08:00+1se2395100 0.0 99951
11:00+2sse2293100 0.1 100071
14:00+6s3686100 0.3 999177
17:00+3s44854 0.0 100067
20:00+3s338331 0.0 100133
25 january, mon
mon2523:00+2e458558 0.0 100178
02:00+1ese368966 0.0 99891
05:00+2ese81687100 0.0 995373
08:00+1se81495100 0.0 992479
11:00+2se61194100 0.8 992455
14:00+4s4987100 0.8 991389
17:00+2ssw61167100 0.0 993307
20:000w51382100 0.0 994712
26 january, tue
tue2623:00−1w91584100 0.0 996943
02:00−2wnw8148071 0.0 1001774
05:00−1w8157458 0.0 999920
08:00−1w61274100 0.0 1003602
11:00+1w8136438 0.0 10051245
14:00+1w10157399 0.1 10041389
17:000wnw71371100 0.1 10061154
20:00−1w71473100 0.1 10071176
27 january, wed
wed2723:00−1w71472100 0.0 10081093
02:00−2w61370100 0.0 1009802
05:00−2w513720 0.0 1009799
08:00−2wsw4117224 0.0 1010526
11:000wnw9135662 0.0 10101215
14:00+1wnw8136063 0.0 10091439
17:00−1wnw71280100 0.1 10111019
20:00−2wnw8139498 0.6 1012981
28 january, thu
thu2823:00−2wnw81392100 0.5 1013915
02:00−2wnw91590100 0.8 1013914
05:00−3nw91487100 0.3 1014997
08:00−3nw81283100 0.3 10151038
11:00−1wnw71081100 0.1 10161076
14:00−1wnw7107599 0.2 10141040
17:00−2nw367553 0.0 1014191
20:00−3nne118127 0.0 101425